Location: Roland
(31.1349°N, 85.4372°W)
Time: 08:14:38
(UTC+00:00)

Vanguard 2 Rocket - Pass Details

Date: 23 April 2021
Orbit: 554 x 3326 km, 32.9° (Epoch: 16 May)

Event Time Altitude Azimuth Distance (km) Brightness Sun altitude
Rises 01:43:54 0° 287° (WNW) 7,154 13.0 -18.5°
Reaches altitude 10° 01:49:54 10° 278° (W) 5,870 12.0 -19.6°
Maximum altitude 02:03:23 30° 227° (SW) 3,520 10.0 -22.1°
Enters shadow 02:11:46 13° 174° (S) 3,798 9.7 -23.6°
